{"data":{"norad_id":43508,"intl_designator":"2018-053A","name":"COSMOS 2527 (756)","alt_names":[],"object_type":"PAYLOAD","status":"ACTIVE","operator":null,"country":"CIS","launch_date":"2018-06-16","launch_site_code":"PLMSC","launch_vehicle":null,"mission":null,"orbit_class":"UNKNOWN","rcs_meters":null,"size_class":null,"mass_kg":null,"dimensions":null,"purposes":["nav"],"wikipedia_slug":null,"has_3d_model":false,"image_url":null,"decayed_at":null,"tle_current":{"epoch":"2026-09-19T09:45:01.396224Z","epoch_age_seconds":108938,"freshness":"FRESH","line1":"1 43508U 18053A   26262.40626616  .00000031  00000+0  00000+0 0  9998","line2":"2 43508  65.6353  70.7673 0007297 213.1488 146.8386  2.13102231 64283","mean_motion":2.13102231,"eccentricity":0.0007297,"inclination_deg":65.6353,"raan_deg":70.7673,"arg_perigee_deg":213.1488,"mean_anomaly_deg":146.8386,"bstar":0,"rev_number":6428,"period_min":675.73201521292,"perigee_km":19111.25580198,"apogee_km":19148.482185928,"semimajor_km":25508.005993954,"source":"CELESTRAK","updated_at":"2026-09-20T09:00:46.277369Z"}}}